Regional Weather Roundup
Issued by NWS Newport/Morehead, NC

Current Version | Previous Version | Graphics & Text | Print | Product List | Glossary Off
Versions: 1 2 3 4 5 6 7 8 9 10 11 12 13 14 15 16 17 18 19 20 21 22 23 24 25 26 27 28 29 30 31 32 33 34 35 36 37 38 39 40 41 42 43 44 45 46 47 48 49 50
000 ASUS42 KMHX 252025 RWRMHX WEATHER ROUNDUP FOR EASTERN NORTH CAROLINA NATIONAL WEATHER SERVICE NEWPORT/MOREHEAD CITY NC 300 PM EST SAT FEB 25 2017 NOTE: "FAIR" INDICATES FEW OR NO CLOUDS BELOW 12,000 FEET WITH NO SIGNIFICANT WEATHER AND/OR OBSTRUCTIONS TO VISIBILITY NCZ015>017-031-032-045>047-102-103-252100- NORTH COAST CITY SKY/WX TMP DP RH WIND PRES REMARKS EDENTON PTSUNNY 79 57 48 SW15 29.60F ELIZABETH CITY SUNNY 78 57 48 S14G24 29.60F KITTY HAWK NOT AVBL MANTEO SUNNY 67 61 81 S17 29.64S $$ NCZ045>047-081-094-103-104-252100- CENTRAL COAST CITY SKY/WX TMP DP RH WIND PRES REMARKS FRISCO SUNNY 73 62 68 SW12G21 29.68F HAZE $$ NCZ095-097-098-100-101-252100- SOUTHERN COAST CITY SKY/WX TMP DP RH WIND PRES REMARKS BEAUFORT SUNNY 71 64 78 SW17 29.69F CEDAR ISLAND NOT AVBL JACKSONVILLE SUNNY 76 64 66 S17G23 29.64F PINEY ISLAND PTCLDY N/A N/A N/A SW18G30 29.67F WILMINGTON SUNNY 77 62 59 S17G23 29.66F $$ NCZ011>013-027>030-043-044-078>080-089-090>093-098-252100- COASTAL PLAIN CITY SKY/WX TMP DP RH WIND PRES REMARKS AHOSKIE N/A 77 56 48 S9G16 29.56F CLINTON SUNNY 81 56 42 SW16G26 29.63F ELIZABETHTOWN N/A 80 53 38 SW12G25 29.65S GOLDSBORO MOSUNNY 79 56 45 SW17G25 29.58F GREENVILLE MOSUNNY 81 55 41 SW18G24 29.62F HAVELOCK MOSUNNY 74 61 63 SW21G31 29.68S KENANSVILLE PTSUNNY 81 55 41 SW22G29 29.62F KINSTON PTSUNNY 81 55 41 SW17G26 29.61F NEW BERN SUNNY 77 60 55 S17G24 29.64F RICHLANDS PTSUNNY 78 60 53 S17 29.63F ROCKY MOUNT PTSUNNY 80 57 45 S21G29 29.57F WASHINGTON MOSUNNY 78 56 46 SW12G20 29.60F WHITEVILLE MOSUNNY 78 54 42 SW13G21 29.66F $$ AMZ130-135-150-152-154-156-158-170-250-252-270-ANZ085-086-088-633-658-670-252100- MARINE OBSERVATIONS STATION/POSITION TIME TEMP WIND PRES WAVE SWELL AIR SEA DIR/SP/G HT/PER HT/PER (UTC) (F) (DEG/KT/KT) (MB) (FT/S) (FT/S) CHESAPEAKE LIGHT NOT AVBL 64 E VA BEACH 1950 59 56 170/ 12/ 14 1003.0 7/11 7/11 DUCK 2000 69 50 180/ 18/ 22 1002.2 2 E DUCK 2000 52 N/A 5/11 3/11 OREGON INLET 2000 64 56 180/ 14/ 16 1004.0 13E OREGON INLT NOT AVBL HATTERAS CG 2000 70 63 210/ 11/ 15 1004.7 DIAMOND BUOY 1950 72 76 220/ 17/ 21 1005.0 6/10 7/10 CAPE LOOKOUT 2000 70 200/ 16/ 20 1005.1 BEAUFORT LAB 2000 69 63 210/ 15/ 18 1004.3 30 SE NEW RVR IN 2008 69 220/ 16/ 21 1005.7 30 SE NEW RVR IN 2013 69 N/A 6/10 3/11 27 SE WRIGHTSVLE 2008 69 65 210/ 16/ 19 1005.1 5 SE WRIGHTSVLE 2008 63 59 200/ 17/ 25 1004.7 225 S CAPE HAT 1950 71 71 250/ 12/ 14 1009.3 7/10 7/10 41 SE CHARLESTON 1950 70 71 210/ 17/ 21 1007.2 6/10 5/10 $$

USA.gov is the U.S. government's official web portal to all federal, state and local government web resources and services.